Torna al catalogo

COSMOS 1275 DEB

AttivoPO
NORAD 42171·DEBRIS·🇷🇺 Russia

Lanciato Jun 4, 1981 da Plesetsk Cosmodrome

Loading…

Prossimi Passaggi (prossime 24 ore)

TLE

AggiornatoSource: Space-Track

Epoca: Sep 13, 2026, 23:21 UTC

1 42171U 81053SK  26256.97358106  .00002681  00000-0  12887-2 0  9997
2 42171  83.0801 158.8315 0041084  84.8952 275.6915 14.18076992117923

Traccia COSMOS 1275 DEB in tempo reale con AllMySat

Download on the App Store